Ellsworth AFB, SD

5:53 PM MDT on May 22, 2018 (GMT -0600)
Ellsworth Air Force Base

Weather History for KRCA - November, 2013

Change the Weather History Date:

Monday, November 18, 2013

  Actual Average Record
Temperature  
Mean Temperature 39 °F -  
Max Temperature 55 °F 43 °F 75 °F (2008)
Min Temperature 23 °F 22 °F 1 °F (2014)
Degree Days  
Heating Degree Days 26    
Moisture  
Dew Point 20 °F    
Average Humidity 47    
Maximum Humidity 67    
Minimum Humidity 27    
Precipitation  
Precipitation 0.00 in - - ()
Sea Level Pressure  
Sea Level Pressure 30.05 in    
Wind  
Wind Speed 7 mph (SSW)    
Max Wind Speed 14 mph    
Max Gust Speed -    
Visibility 10 miles    
Events      
Averages and records for this station are not official NWS values.
T = Trace of Precipitation, MM = Missing Value Source: NWS Daily Summary

Daily Weather History Graph

Daily Weather History Graph

Search for Another Location

Airport or City:

Astronomy

Nov. 18, 2013 Rise Set
Actual Time 6:52 AM MST 4:22 PM MST
Civil Twilight 6:20 AM MST 4:54 PM MST
Nautical Twilight 5:45 AM MST 5:29 PM MST
Astronomical Twilight 5:10 AM MST 6:03 PM MST
Moon 5:26 PM MST (11/18) 7:43 AM MST (11/18)
Length of Visible Light 10h 33m
Length of Day
9h 30m
Full, 99% of the Moon is Illuminated
Nov 18
Full
Nov 25
Last Quarter
Dec 2
New
Dec 9
First Quarter
Dec 17
Full

Hourly Weather History & Observations

Time (MST) Temp. Windchill Dew Point Humidity Pressure Visibility Wind Dir Wind Speed Gust Speed Precip Events Conditions
12:58 AM 25.0 °F 18.1 °F 15.3 °F 67% 30.09 in 10.0 mi West 5.8 mph - N/A   Clear
1:58 AM 25.9 °F 18.2 °F 15.4 °F 65% 30.10 in 10.0 mi WSW 6.9 mph - N/A   Clear
2:58 AM 25.9 °F 18.2 °F 15.4 °F 65% 30.10 in 10.0 mi West 6.9 mph - N/A   Clear
3:58 AM 23.7 °F 15.6 °F 14.0 °F 66% 30.11 in 10.0 mi West 6.9 mph - N/A   Clear
4:58 AM 28.4 °F 21.2 °F 15.1 °F 57% 30.13 in 10.0 mi West 6.9 mph - N/A   Clear
5:58 AM 27.9 °F 20.6 °F 15.3 °F 59% 30.13 in 10.0 mi SW 6.9 mph - N/A   Clear
6:58 AM 28.2 °F 22.0 °F 14.0 °F 55% 30.15 in 10.0 mi West 5.8 mph - N/A   Clear
7:58 AM 30.9 °F 26.2 °F 16.5 °F 55% 30.14 in 10.0 mi SW 4.6 mph - N/A   Clear
8:58 AM 40.1 °F 34.1 °F 16.9 °F 39% 30.11 in 10.0 mi South 9.2 mph - N/A   Clear
9:53 AM 44.6 °F 40.7 °F 15.8 °F 31% 30.02 in 10.0 mi South 6.9 mph - N/A   Light Drizzle
9:58 AM 43.7 °F 39.1 °F 15.4 °F 32% 30.11 in 10.0 mi South 8.1 mph - 0.00 in   Clear
10:02 AM 44.6 °F 39.7 °F 15.8 °F 31% 30.02 in 10.0 mi South 9.2 mph - N/A   Clear
10:58 AM 44.6 °F 40.2 °F 20.1 °F 38% 30.09 in 10.0 mi SW 8.1 mph - 0.00 in   Clear
11:58 AM 48.9 °F - 21.2 °F 34% 30.05 in 10.0 mi South 9.2 mph - N/A   Clear
12:58 PM 53.2 °F - 19.4 °F 27% 30.04 in 10.0 mi South 11.5 mph - N/A   Clear
1:58 PM 55.4 °F - 22.3 °F 28% 30.02 in 10.0 mi South 10.4 mph - N/A   Clear
2:58 PM 55.0 °F - 22.5 °F 28% 30.02 in 10.0 mi SSE 6.9 mph - N/A   Clear
3:58 PM 50.4 °F - 25.0 °F 37% 30.04 in 10.0 mi SSE 8.1 mph - N/A   Clear
4:58 PM 42.8 °F 39.3 °F 24.4 °F 48% 30.04 in 10.0 mi SSE 5.8 mph - N/A   Clear
5:58 PM 44.1 °F 41.5 °F 23.9 °F 45% 30.04 in 10.0 mi SSE 4.6 mph - N/A   Clear
6:58 PM 41.0 °F 38.0 °F 24.1 °F 51% 30.02 in 10.0 mi SW 4.6 mph - N/A   Clear
7:58 PM 39.4 °F 33.8 °F 25.0 °F 56% 30.01 in 10.0 mi South 8.1 mph - N/A   Clear
8:58 PM 40.6 °F 36.7 °F 24.1 °F 52% 29.97 in 10.0 mi South 5.8 mph - N/A   Clear
9:58 PM 40.8 °F 35.6 °F 24.4 °F 52% 29.93 in 10.0 mi SSE 8.1 mph - N/A   Clear
10:58 PM 40.6 °F 34.3 °F 23.7 °F 51% 29.90 in 10.0 mi South 10.4 mph - N/A   Scattered Clouds
11:58 PM 40.5 °F 32.8 °F 24.1 °F 52% 29.85 in 10.0 mi SSE 13.8 mph - N/A   Overcast